Wind_Speed
35 36 37 36 36 35 35 35 36 35 35 34 33 33 33 32 30 30 30 30 29 29 29 29 28 28 27 27 27 26 26 26 26 25 25 25 25 25 25 25 24 24 24
37 36 36 36 36 36 36 36 37 36 36 36 35 35 34 34 33 32 32 31 30 30 30 30 30 30 30 29 28 28 28 28 28 28 27 27 27 27 27 27 26 26 26
36 37 36 37 37 37 37 37 37 37 36 37 36 35 35 35 35 34 34 33 33 32 32 32 31 31 31 31 31 31 30 30 30 30 30 29 29 29 29 29 29 28 28
35 36 37 37 38 38 38 38 37 38 37 37 37 37 36 36 36 36 35 35 35 34 34 33 33 33 32 32 32 32 32 32 32 32 31 31 31 31 31 31 31 30 30
34 35 36 36 37 38 37 38 38 37 38 37 38 38 38 37 37 37 37 37 37 36 35 35 34 34 34 34 34 34 33 34 33 33 33 33 33 33 32 32 32 32 32
34 35 36 35 36 37 36 37 38 38 39 39 39 39 39 39 38 38 38 37 37 36 37 37 36 36 36 36 36 35 35 34 35 34 34 34 34 34 34 35 35 34 34
35 34 35 35 36 35 35 36 37 37 38 39 39 39 40 40 40 39 38 37 37 37 37 37 37 38 38 38 38 37 37 37 37 36 36 36 36 37 37 37 37 36 36
33 33 33 34 36 35 35 36 36 38 38 39 40 40 41 40 40 39 39 38 37 36 36 37 37 38 39 39 40 40 39 39 38 38 38 38 39 39 39 39 39 39 38
31 32 32 33 35 35 36 37 37 37 38 39 39 40 40 40 40 40 39 38 38 39 39 38 39 39 39 39 40 41 41 41 41 40 40 40 41 41 41 41 41 42 41
29 31 32 32 34 35 35 36 36 38 39 40 40 40 41 40 40 39 39 39 39 39 40 40 40 40 40 40 40 41 41 42 43 43 42 43 43 43 43 43 43 43 43
27 29 31 32 33 35 36 36 36 38 39 40 40 40 41 41 41 40 40 40 41 41 41 41 41 42 42 42 41 42 43 44 44 44 44 45 44 45 45 45 45 45 45
27 28 31 32 33 35 36 37 37 38 38 39 39 40 41 41 41 42 41 41 41 41 41 42 42 42 43 44 44 44 45 45 46 46 46 47 46 46 47 47 47 47 47
28 29 31 32 33 35 36 37 37 38 38 39 39 39 41 42 42 43 43 42 42 42 42 43 43 44 44 45 46 46 47 47 48 48 48 48 49 48 48 49 49 50 50
29 30 31 32 33 34 36 37 37 38 38 39 40 41 42 43 44 45 44 44 44 44 44 44 45 45 45 47 48 48 48 49 49 50 50 50 50 50 50 51 51 52 53
29 29 30 31 32 34 35 36 37 38 38 39 40 41 43 44 45 45 45 45 45 45 44 45 45 45 46 47 47 48 49 49 50 51 51 52 51 52 52 52 53 54 55
29 30 30 31 32 33 35 36 37 38 39 40 40 41 42 43 45 45 45 46 46 46 45 45 46 46 46 47 49 49 49 49 50 52 53 54 54 55 55 55 55 56 57
29 29 31 31 33 34 35 36 37 38 39 40 41 42 42 42 43 44 43 44 46 46 46 46 47 47 47 48 49 50 50 50 51 53 54 55 56 57 58 57 57 58 59
30 31 31 31 32 34 34 35 37 38 38 39 41 42 42 42 43 43 43 44 45 46 47 47 48 49 49 50 51 52 52 53 54 55 56 56 57 56 58 58 58 59 59
30 31 31 30 30 31 32 34 35 36 37 39 40 41 42 42 42 42 43 44 45 46 47 48 49 50 51 51 52 53 54 55 56 57 57 57 57 57 58 58 58 58 58
29 30 31 30 30 30 31 32 33 35 36 38 38 39 41 42 41 42 43 44 44 46 47 49 49 50 50 51 52 53 54 55 56 56 56 56 56 56 56 56 56 56 56
29 29 30 30 30 29 29 30 32 33 34 36 38 39 40 42 42 43 44 45 46 46 48 48 49 49 50 51 51 52 53 54 54 54 55 55 55 55 55 55 56 56 56
28 28 28 29 29 29 29 29 30 32 34 35 36 38 39 40 41 43 44 46 46 47 48 48 49 49 50 50 51 52 53 53 53 53 54 53 54 54 54 55 55 56 56
29 29 29 29 30 30 30 30 31 32 34 35 36 38 39 41 41 42 43 45 46 47 48 48 48 49 49 50 50 50 51 51 52 52 52 51 52 53 54 55 55 54 54
29 29 30 30 30 30 31 32 32 33 34 35 37 37 39 40 41 42 43 44 44 45 45 47 47 47 48 49 50 50 51 51 51 51 52 52 52 52 52 52 52 52 51
31 31 31 31 30 31 31 32 33 34 35 36 37 38 39 40 41 42 42 42 42 43 44 45 46 46 47 48 49 50 49 49 49 49 50 51 50 49 49 49 50 51 50
32 32 32 31 31 32 33 33 34 35 35 36 37 39 40 40 41 41 42 42 42 42 43 43 44 44 45 46 47 48 48 47 48 48 48 48 47 47 46 46 48 48 48
Wind_Direction
256 253 250 249 248 246 245 244 245 245 245 245 246 246 246 247 247 249 250 249 250 251 252 253 256 256 256 256 257 259 261 262 263 266 268 271 273 275 277 277 276 276 278
255 252 251 249 248 246 245 244 244 246 246 245 245 246 247 248 248 249 251 251 252 252 253 254 256 258 258 258 258 259 261 262 264 266 268 271 273 275 277 277 275 275 276
255 251 250 248 247 246 246 245 245 245 245 245 246 247 249 249 250 251 251 252 252 253 254 255 255 257 259 259 259 260 262 264 265 267 268 270 272 274 276 276 274 273 275
254 252 251 248 246 245 246 245 244 243 243 245 246 247 249 250 251 251 253 253 254 255 254 254 256 257 258 259 260 261 262 265 266 268 269 270 272 273 275 275 274 272 273
255 253 253 250 247 245 244 244 244 244 243 244 246 247 248 249 251 252 253 254 254 254 254 254 255 257 258 259 260 261 263 265 266 269 270 270 271 272 274 274 273 271 272
257 255 255 253 250 246 243 244 245 245 244 245 247 248 248 249 251 252 252 252 252 253 254 255 255 256 258 259 261 261 263 264 266 268 270 271 272 272 274 274 273 271 272
258 256 257 253 250 248 246 245 245 246 245 247 249 248 249 250 251 250 251 252 252 254 255 256 256 256 256 258 259 261 262 264 265 267 270 271 272 273 275 274 272 270 271
261 258 257 255 252 250 249 248 246 248 249 250 250 249 249 251 252 252 252 252 253 254 255 257 257 258 257 258 259 261 262 264 265 267 269 271 272 273 275 275 273 271 271
262 259 257 255 254 252 252 251 249 250 250 251 250 251 250 251 252 252 252 253 254 255 256 258 259 260 259 259 260 262 263 264 266 268 270 270 271 273 274 275 273 272 272
262 259 258 258 256 255 254 253 252 254 252 252 251 251 251 250 251 252 254 255 257 258 259 260 260 261 261 260 261 262 263 265 266 268 269 270 271 272 273 274 273 272 272
266 263 261 260 258 257 255 253 253 253 253 252 252 252 250 249 251 252 255 256 257 259 261 261 262 263 263 262 261 262 264 265 267 269 270 270 271 272 273 273 274 273 273
269 267 265 262 261 259 257 254 254 253 253 253 253 253 252 251 253 255 255 256 257 259 262 262 263 263 263 263 263 264 265 267 268 269 270 270 271 272 273 273 273 274 274
271 269 266 264 262 259 257 255 254 253 253 253 253 253 253 252 253 255 257 258 258 259 261 263 264 264 264 264 263 265 266 267 268 270 271 271 272 274 274 273 274 275 275
272 270 268 267 264 262 260 256 254 254 254 255 254 254 254 253 253 255 257 259 259 259 261 263 265 266 266 266 265 265 266 267 268 269 270 272 273 274 275 274 274 275 276
276 273 270 267 264 263 261 258 255 255 256 256 256 256 255 254 255 256 257 259 260 260 262 264 265 266 267 268 267 267 266 267 268 269 271 272 274 274 275 275 274 275 276
276 274 273 269 265 263 262 260 258 257 258 259 258 258 257 258 258 260 259 260 261 262 262 264 265 266 267 268 267 267 268 268 269 270 271 272 274 274 275 275 275 276 276
276 274 274 273 268 266 264 262 261 260 260 260 260 258 259 259 259 261 260 261 262 263 264 266 266 267 268 268 269 269 269 270 270 271 272 273 274 275 275 276 276 276 276
276 275 275 273 269 268 267 265 264 263 263 263 263 260 260 261 262 262 262 262 263 264 266 267 268 268 269 269 269 270 270 271 271 273 274 274 274 275 276 276 276 276 276
278 277 276 274 272 270 268 267 265 264 264 264 264 264 263 262 262 263 264 264 265 266 268 268 269 269 270 270 271 271 271 271 272 273 274 275 275 276 276 276 276 276 277
279 277 275 275 273 271 269 267 266 265 265 265 265 265 265 264 264 265 266 267 267 268 269 270 270 271 271 271 272 272 272 273 274 274 274 274 275 275 276 276 277 277 277
280 278 276 275 274 274 272 270 268 268 267 266 267 267 266 266 267 268 268 268 269 270 271 271 271 271 272 272 273 273 274 274 274 274 274 274 275 275 276 277 278 277 277
283 281 279 276 274 274 273 271 271 271 271 269 268 268 269 270 270 270 270 270 271 272 273 273 272 273 273 274 274 275 275 275 275 275 275 276 276 276 276 277 278 278 278
283 282 281 278 274 273 272 272 274 275 274 272 272 272 273 273 273 273 273 273 273 273 274 275 275 275 275 275 275 275 275 275 275 275 275 276 276 277 277 278 279 279 279
283 283 281 279 276 275 274 275 275 276 276 275 275 276 276 275 274 275 275 275 274 275 275 276 276 276 275 275 276 276 276 276 276 275 276 277 278 278 278 279 280 279 279
283 282 280 278 278 277 276 276 276 277 277 278 279 278 279 278 276 276 276 276 277 276 276 277 278 278 278 278 278 278 277 276 276 276 277 279 279 279 279 279 280 280 280
280 279 278 279 279 277 277 277 277 278 278 280 281 281 280 279 277 276 277 277 277 277 278 278 279 280 281 281 280 279 278 278 278 278 278 280 280 280 279 280 281 281 280
Height
5770 5772 5773 5776 5778 5780 5783 5786 5789 5792 5795 5798 5801 5803 5806 5808 5810 5812 5814 5816 5818 5819 5821 5822 5823 5824 5825 5826 5828 5829 5829 5830 5830 5831 5831 5831 5831 5831 5831 5831 5830 5830 5830
5760 5762 5764 5766 5769 5772 5775 5778 5781 5785 5788 5791 5793 5796 5798 5801 5803 5806 5807 5809 5811 5812 5814 5815 5817 5818 5819 5820 5821 5822 5823 5824 5824 5825 5825 5825 5825 5825 5825 5824 5824 5824 5824
5750 5752 5755 5757 5760 5763 5766 5770 5773 5776 5780 5783 5786 5788 5791 5794 5796 5798 5800 5802 5803 5805 5807 5808 5810 5811 5812 5813 5815 5816 5817 5817 5818 5818 5819 5819 5819 5819 5818 5818 5818 5817 5817
5741 5743 5745 5748 5751 5754 5757 5761 5764 5768 5771 5775 5778 5781 5783 5785 5788 5790 5792 5794 5795 5797 5799 5801 5802 5804 5805 5806 5808 5809 5810 5810 5811 5811 5812 5812 5812 5812 5811 5811 5810 5810 5810
5732 5734 5737 5739 5742 5745 5748 5752 5755 5758 5762 5766 5769 5772 5775 5777 5780 5781 5783 5785 5787 5788 5790 5792 5794 5796 5797 5799 5800 5801 5802 5803 5803 5804 5804 5804 5804 5804 5804 5803 5803 5803 5803
5724 5726 5728 5731 5733 5737 5740 5743 5747 5750 5754 5757 5760 5763 5766 5768 5771 5773 5774 5776 5778 5779 5781 5783 5785 5787 5789 5791 5792 5793 5794 5795 5795 5796 5796 5796 5796 5796 5796 5795 5795 5795 5794
5716 5718 5720 5723 5725 5729 5732 5735 5738 5741 5744 5748 5751 5754 5757 5759 5761 5764 5765 5767 5769 5771 5773 5774 5776 5778 5780 5782 5783 5784 5785 5786 5787 5787 5787 5788 5788 5788 5787 5787 5786 5786 5786
5708 5710 5712 5715 5718 5721 5724 5727 5730 5733 5735 5739 5742 5745 5748 5751 5752 5754 5756 5758 5760 5762 5764 5765 5767 5768 5770 5772 5774 5775 5776 5777 5778 5778 5779 5778 5778 5778 5778 5777 5777 5776 5776
5701 5702 5705 5707 5710 5713 5715 5718 5721 5724 5727 5730 5732 5735 5738 5741 5743 5745 5747 5749 5751 5753 5755 5756 5758 5759 5761 5762 5764 5765 5766 5767 5768 5768 5769 5769 5769 5768 5768 5768 5767 5766 5766
5694 5696 5698 5700 5702 5705 5707 5710 5712 5715 5718 5721 5723 5725 5728 5731 5734 5737 5739 5740 5742 5744 5746 5747 5748 5749 5751 5752 5754 5755 5756 5757 5757 5758 5758 5758 5758 5758 5757 5757 5756 5756 5755
5688 5689 5691 5693 5695 5697 5699 5701 5704 5706 5709 5711 5714 5716 5718 5721 5724 5727 5730 5732 5733 5735 5736 5737 5738 5739 5740 5741 5743 5744 5745 5746 5746 5747 5747 5747 5746 5746 5746 5745 5745 5744 5744
5682 5683 5684 5685 5687 5688 5690 5692 5694 5697 5699 5702 5704 5707 5709 5712 5714 5717 5719 5721 5723 5725 5726 5727 5728 5729 5730 5731 5732 5733 5734 5734 5735 5735 5735 5734 5734 5733 5733 5733 5732 5732 5731
5675 5676 5676 5677 5678 5679 5681 5683 5685 5687 5690 5692 5694 5697 5699 5702 5704 5706 5708 5711 5713 5715 5716 5717 5717 5718 5718 5719 5720 5721 5722 5722 5723 5722 5722 5722 5721 5720 5720 5720 5720 5719 5718
5668 5668 5668 5669 5669 5670 5672 5673 5675 5678 5680 5682 5684 5687 5689 5691 5693 5695 5697 5699 5701 5704 5705 5706 5706 5706 5707 5707 5708 5708 5709 5709 5710 5710 5709 5708 5708 5707 5707 5706 5706 5705 5704
5660 5660 5660 5660 5661 5662 5662 5664 5666 5668 5670 5672 5674 5676 5678 5680 5682 5684 5686 5687 5690 5692 5694 5695 5695 5695 5695 5695 5695 5696 5696 5695 5696 5696 5695 5695 5694 5693 5693 5692 5691 5690 5689
5652 5652 5652 5652 5652 5653 5653 5654 5656 5657 5659 5661 5663 5665 5667 5669 5671 5673 5674 5676 5677 5679 5681 5683 5682 5682 5682 5682 5682 5682 5682 5682 5682 5681 5681 5680 5679 5679 5678 5677 5676 5675 5673
5644 5643 5643 5643 5643 5643 5644 5645 5646 5647 5649 5651 5652 5654 5656 5658 5659 5661 5662 5663 5665 5666 5668 5670 5669 5669 5669 5669 5669 5668 5668 5668 5667 5667 5666 5665 5664 5662 5661 5660 5659 5657 5656
5635 5635 5635 5634 5634 5634 5635 5635 5637 5638 5639 5640 5642 5643 5645 5646 5648 5649 5650 5651 5652 5653 5654 5656 5656 5656 5656 5655 5655 5654 5654 5653 5653 5651 5650 5649 5647 5645 5644 5643 5641 5640 5639
5627 5626 5626 5625 5625 5625 5626 5626 5627 5628 5629 5630 5631 5633 5634 5635 5636 5637 5637 5638 5639 5640 5640 5641 5642 5642 5641 5641 5640 5640 5639 5638 5637 5635 5634 5632 5631 5629 5627 5625 5624 5622 5621
5618 5618 5617 5616 5616 5616 5617 5617 5618 5619 5620 5620 5621 5622 5623 5624 5625 5625 5626 5626 5626 5626 5627 5627 5627 5627 5627 5626 5625 5625 5624 5622 5621 5619 5617 5616 5614 5612 5610 5609 5607 5606 5604
5610 5609 5609 5608 5608 5608 5608 5608 5609 5610 5610 5611 5612 5612 5612 5613 5613 5613 5614 5613 5613 5613 5613 5613 5613 5613 5612 5611 5610 5609 5607 5606 5605 5603 5601 5600 5598 5597 5594 5592 5590 5588 5587
5602 5601 5600 5600 5600 5600 5600 5600 5600 5601 5601 5602 5602 5602 5602 5602 5602 5601 5601 5601 5600 5600 5600 5599 5599 5598 5597 5596 5594 5592 5591 5590 5591 5589 5585 5584 5582 5581 5578 5576 5574 5572 5571
5594 5593 5592 5592 5592 5592 5592 5592 5592 5592 5592 5592 5592 5592 5592 5591 5591 5590 5589 5588 5587 5586 5585 5585 5584 5583 5582 5581 5579 5578 5575 5574 5573 5571 5569 5569 5567 5565 5562 5560 5558 5556 5554
5586 5585 5584 5583 5583 5583 5583 5583 5583 5583 5583 5582 5582 5581 5581 5580 5579 5578 5577 5576 5575 5573 5572 5571 5570 5569 5567 5565 5563 5561 5559 5558 5558 5555 5553 5553 5551 5550 5547 5544 5542 5540 5539
5578 5576 5575 5575 5574 5574 5574 5574 5574 5573 5573 5573 5571 5570 5569 5568 5567 5566 5565 5564 5563 5561 5559 5558 5556 5554 5552 5550 5547 5545 5544 5543 5542 5541 5538 5537 5536 5534 5533 5530 5527 5525 5524
5568 5568 5567 5566 5566 5565 5565 5564 5564 5564 5564 5562 5561 5559 5557 5556 5555 5553 5552 5552 5550 5549 5547 5545 5543 5541 5539 5536 5533 5531 5529 5528 5527 5527 5525 5523 5521 5519 5520 5518 5514 5512 5510